When you browse on this site, cookies collect data to enhance your experience and personalize the content and advertising you see.
Visit our Privacy Policy to learn more. By continuing to use the site, you agree to this use of cookies and data.
  • In Hungary
  • List of Countries
  • For 7 days
  • Water Temperature
  • Satellite Maps
  • Weather Map
  • News
  • Weather Widgets
  • user-avatar
    Login

    Hourly Weather Terrenate

    Today, 17 February, Sunday

    Time Temperature Precipitation Wind Pressure Humidity
    00:00 +13°C° 0 mm 2 mps 545 mmHg 56%
    01:00 +12°C° 0 mm 2 mps 545 mmHg 55%
    02:00 +12°C° 0 mm 2 mps 544 mmHg 54%
    03:00 +10°C° 0 mm 2 mps 544 mmHg 55%
    04:00 +10°C° 0 mm 2 mps 544 mmHg 55%
    05:00 +10°C° 0 mm 2 mps 544 mmHg 56%
    06:00 +12°C° 0 mm 2 mps 545 mmHg 53%
    07:00 +13°C° 0 mm 2 mps 546 mmHg 50%
    08:00 +15°C° 0 mm 2 mps 547 mmHg 46%
    09:00 +17°C° 0 mm 2 mps 549 mmHg 40%
    10:00 +20°C° 0 mm 2 mps 550 mmHg 33%
    11:00 +24°C° 0 mm 2 mps 551 mmHg 26%
    12:00 +24°C° 0 mm 3 mps 551 mmHg 24%
    13:00 +25°C° 0 mm 3 mps 551 mmHg 23%
    14:00 +25°C° 0 mm 3 mps 550 mmHg 21%
    15:00 +24°C° 0 mm 3 mps 550 mmHg 24%
    16:00 +22°C° 0 mm 3 mps 549 mmHg 28%
    17:00 +20°C° 0 mm 3 mps 549 mmHg 31%
    18:00 +19°C° 0 mm 3 mps 548 mmHg 35%
    19:00 +17°C° 0 mm 2 mps 548 mmHg 38%
    20:00 +15°C° 0 mm 2 mps 548 mmHg 41%
    21:00 +14°C° 0 mm 2 mps 547 mmHg 44%
    22:00 +13°C° 0 mm 2 mps 547 mmHg 46%
    23:00 +13°C° 0 mm 1 mps 547 mmHg 48%

    Tomorrow, 18 February, Monday

    Time Temperature Precipitation Wind Pressure Humidity
    00:00 +12°C° 0 mm 1 mps 547 mmHg 52%
    01:00 +12°C° 0 mm 1 mps 546 mmHg 56%
    02:00 +11°C° 0 mm 1 mps 546 mmHg 60%
    03:00 +11°C° 0 mm 1 mps 546 mmHg 62%
    04:00 +11°C° 0 mm 1 mps 546 mmHg 63%
    05:00 +10°C° 0 mm 1 mps 546 mmHg 65%
    06:00 +12°C° 0 mm 1 mps 547 mmHg 58%
    07:00 +14°C° 0 mm 1 mps 549 mmHg 51%
    08:00 +16°C° 0 mm 1 mps 550 mmHg 44%
    09:00 +18°C° 0 mm 2 mps 551 mmHg 38%
    10:00 +20°C° 0 mm 3 mps 552 mmHg 32%
    11:00 +22°C° 0 mm 3 mps 553 mmHg 26%
    12:00 +22°C° 0 mm 4 mps 553 mmHg 25%
    13:00 +23°C° 0 mm 5 mps 552 mmHg 24%
    14:00 +23°C° 0 mm 5 mps 552 mmHg 23%
    15:00 +22°C° 0 mm 5 mps 551 mmHg 26%
    16:00 +21°C° 0 mm 5 mps 551 mmHg 30%
    17:00 +19°C° 0 mm 4 mps 550 mmHg 34%
    18:00 +18°C° 0.1 mm 4 mps 549 mmHg 37%
    19:00 +16°C° 0.1 mm 3 mps 549 mmHg 41%
    20:00 +14°C° 0.1 mm 2 mps 549 mmHg 45%
    21:00 +14°C° 0.1 mm 2 mps 548 mmHg 46%
    22:00 +13°C° 0.1 mm 2 mps 548 mmHg 48%
    23:00 +13°C° 0.1 mm 2 mps 548 mmHg 49%

    Day after tomorrow, 19 February, Tuesday

    Time Temperature Precipitation Wind Pressure Humidity
    00:00 +12°C° 0 mm 2 mps 547 mmHg 57%
    01:00 +12°C° 0 mm 2 mps 547 mmHg 64%
    02:00 +10°C° 0 mm 2 mps 546 mmHg 72%
    03:00 +10°C° 0 mm 2 mps 546 mmHg 72%
    04:00 +9°C° 0 mm 2 mps 546 mmHg 73%
    05:00 +9°C° 0 mm 2 mps 545 mmHg 73%
    06:00 +10°C° 0 mm 2 mps 547 mmHg 66%
    07:00 +13°C° 0 mm 2 mps 548 mmHg 59%
    08:00 +14°C° 0 mm 2 mps 549 mmHg 53%
    09:00 +16°C° 0 mm 3 mps 550 mmHg 44%
    10:00 +18°C° 0 mm 4 mps 550 mmHg 36%
    11:00 +20°C° 0 mm 5 mps 551 mmHg 28%
    12:00 +20°C° 0 mm 6 mps 551 mmHg 25%
    13:00 +21°C° 0 mm 6 mps 550 mmHg 22%
    14:00 +21°C° 0 mm 7 mps 549 mmHg 19%
    15:00 +20°C° 0 mm 6 mps 549 mmHg 21%
    16:00 +19°C° 0 mm 6 mps 548 mmHg 23%
    17:00 +16°C° 0 mm 5 mps 547 mmHg 26%
    18:00 +15°C° 0 mm 4 mps 547 mmHg 30%
    19:00 +13°C° 0 mm 3 mps 547 mmHg 34%
    20:00 +12°C° 0 mm 3 mps 546 mmHg 38%
    21:00 +12°C° 0 mm 2 mps 546 mmHg 40%
    22:00 +12°C° 0 mm 2 mps 546 mmHg 43%
    23:00 +10°C° 0 mm 2 mps 545 mmHg 45%

    20 February, Wednesday

    Time Temperature Precipitation Wind Pressure Humidity
    00:00 +10°C° 0 mm 2 mps 545 mmHg 47%
    01:00 +9°C° 0 mm 2 mps 544 mmHg 49%
    02:00 +8°C° 0 mm 2 mps 544 mmHg 51%
    03:00 +8°C° 0 mm 2 mps 543 mmHg 52%
    04:00 +7°C° 0 mm 2 mps 543 mmHg 54%
    05:00 +7°C° 0 mm 2 mps 543 mmHg 55%
    06:00 +9°C° 0 mm 2 mps 544 mmHg 51%
    07:00 +10°C° 0 mm 2 mps 545 mmHg 47%
    08:00 +13°C° 0 mm 2 mps 547 mmHg 43%
    09:00 +14°C° 0 mm 3 mps 548 mmHg 37%
    10:00 +17°C° 0 mm 3 mps 549 mmHg 30%
    11:00 +19°C° 0 mm 4 mps 550 mmHg 24%
    12:00 +20°C° 0 mm 4 mps 549 mmHg 23%
    13:00 +20°C° 0 mm 5 mps 549 mmHg 21%
    14:00 +21°C° 0 mm 6 mps 548 mmHg 20%
    15:00 +20°C° 0 mm 6 mps 548 mmHg 23%
    16:00 +17°C° 0 mm 5 mps 547 mmHg 25%
    17:00 +16°C° 0 mm 5 mps 547 mmHg 27%
    18:00 +14°C° 0 mm 4 mps 546 mmHg 30%
    19:00 +13°C° 0 mm 3 mps 546 mmHg 33%
    20:00 +12°C° 0 mm 2 mps 545 mmHg 35%
    21:00 +10°C° 0 mm 2 mps 545 mmHg 37%
    22:00 +10°C° 0 mm 2 mps 545 mmHg 39%
    23:00 +9°C° 0 mm 2 mps 545 mmHg 41%

    21 February, Thursday

    Time Temperature Precipitation Wind Pressure Humidity
    00:00 +9°C° 0 mm 2 mps 544 mmHg 42%
    01:00 +8°C° 0 mm 2 mps 544 mmHg 43%
    02:00 +8°C° 0 mm 2 mps 543 mmHg 45%
    03:00 +7°C° 0 mm 2 mps 543 mmHg 46%
    04:00 +7°C° 0 mm 2 mps 543 mmHg 46%
    05:00 +6°C° 0 mm 2 mps 543 mmHg 47%
    06:00 +8°C° 0 mm 2 mps 544 mmHg 44%
    07:00 +10°C° 0 mm 2 mps 545 mmHg 41%
    08:00 +12°C° 0 mm 2 mps 547 mmHg 39%
    09:00 +14°C° 0 mm 3 mps 548 mmHg 32%
    10:00 +17°C° 0 mm 3 mps 549 mmHg 26%
    11:00 +19°C° 0 mm 3 mps 550 mmHg 20%
    12:00 +20°C° 0 mm 4 mps 550 mmHg 19%
    13:00 +21°C° 0 mm 4 mps 549 mmHg 18%
    14:00 +22°C° 0 mm 5 mps 549 mmHg 17%
    15:00 +20°C° 0 mm 5 mps 548 mmHg 20%
    16:00 +19°C° 0 mm 4 mps 548 mmHg 22%
    17:00 +18°C° 0 mm 4 mps 547 mmHg 25%
    18:00 +15°C° 0 mm 4 mps 547 mmHg 28%
    19:00 +13°C° 0 mm 3 mps 546 mmHg 32%
    20:00 +12°C° 0 mm 2 mps 546 mmHg 36%
    21:00 +12°C° 0 mm 2 mps 546 mmHg 39%
    22:00 +11°C° 0 mm 1 mps 545 mmHg 43%
    23:00 +11°C° 0 mm 1 mps 545 mmHg 46%

    22 February, Friday

    Time Temperature Precipitation Wind Pressure Humidity
    00:00 +10°C° 0 mm 1 mps 545 mmHg 48%
    01:00 +10°C° 0 mm 1 mps 545 mmHg 50%
    02:00 +10°C° 0 mm 1 mps 544 mmHg 53%
    03:00 +9°C° 0 mm 1 mps 544 mmHg 53%
    04:00 +9°C° 0 mm 1 mps 544 mmHg 54%
    05:00 +9°C° 0 mm 1 mps 545 mmHg 54%
    06:00 +11°C° 0 mm 1 mps 546 mmHg 48%
    07:00 +13°C° 0 mm 1 mps 548 mmHg 42%
    08:00 +15°C° 0 mm 1 mps 549 mmHg 36%
    09:00 +18°C° 0 mm 1 mps 550 mmHg 31%
    10:00 +20°C° 0 mm 1 mps 551 mmHg 25%
    11:00 +21°C° 0 mm 2 mps 552 mmHg 20%
    12:00 +23°C° 0 mm 2 mps 551 mmHg 19%
    13:00 +23°C° 0 mm 2 mps 551 mmHg 19%
    14:00 +24°C° 0 mm 3 mps 551 mmHg 18%
    15:00 +21°C° 0 mm 3 mps 550 mmHg 22%
    16:00 +20°C° 0 mm 3 mps 550 mmHg 26%
    17:00 +19°C° 0 mm 3 mps 549 mmHg 29%
    18:00 +17°C° 0 mm 2 mps 549 mmHg 33%
    19:00 +16°C° 0 mm 2 mps 548 mmHg 37%
    20:00 +14°C° 0 mm 1 mps 548 mmHg 42%
    21:00 +13°C° 0 mm 1 mps 548 mmHg 40%
    22:00 +13°C° 0 mm 1 mps 547 mmHg 39%
    23:00 +12°C° 0 mm 1 mps 547 mmHg 37%
    Show more